North Las Vegas, NV

5:02 AM PST on January 21, 2018 (GMT -0800)
North Las Vegas

Weather History for KVGT - May, 2013

Change the Weather History Date:

Wednesday, May 8, 2013

  Actual Average Record
Temperature  
Mean Temperature 67 °F 74 °F  
Max Temperature 75 °F 85 °F 97 °F (2001)
Min Temperature 59 °F 62 °F 51 °F (2015)
Degree Days  
Heating Degree Days 0 0  
Month to date heating degree days 0  
Since 1 July heating degree days 2038  
Cooling Degree Days 2 9  
Month to date cooling degree days 63  
Year to date cooling degree days 190  
Growing Degree Days 17 (Base 50)    
Moisture  
Dew Point 39 °F    
Average Humidity 38    
Maximum Humidity 51    
Minimum Humidity 26    
Precipitation  
Precipitation 0.00 in 0.01 in 0.00 in (2018)
Month to date precipitation 0.05  
Year to date precipitation 2.51  
Sea Level Pressure  
Sea Level Pressure 30.00 in    
Wind  
Wind Speed 7 mph (NNW)    
Max Wind Speed 22 mph    
Max Gust Speed 26 mph    
Visibility 10 miles    
Events      
T = Trace of Precipitation, MM = Missing Value Source: NWS Daily Summary

Daily Weather History Graph

Daily Weather History Graph

Search for Another Location

Airport or City:

Trip Planner

Search our weather history database for the weather conditions in past years. The results will help you decide how hot, cold, wet, or windy it might be!

Date:

Astronomy

May. 08, 2013 Rise Set
Actual Time 5:40 AM PDT 7:34 PM PDT
Civil Twilight 5:12 AM PDT 8:02 PM PDT
Nautical Twilight 4:38 AM PDT 8:37 PM PDT
Astronomical Twilight 4:01 AM PDT 9:13 PM PDT
Moon 4:48 AM PDT (5/8) 6:38 PM PDT (5/8)
Length of Visible Light 14h 50m
Length of Day
13h 54m
Waning Crescent, 1% of the Moon is Illuminated
May 8
Waning Crescent
May 9
New
May 17
First Quarter
May 24
Full
May 31
Last Quarter

Hourly Weather History & Observations

Time (PDT) Temp. Dew Point Humidity Pressure Visibility Wind Dir Wind Speed Gust Speed Precip Events Conditions
12:53 AM 59.0 °F 41.0 °F 51% 29.96 in 10.0 mi North 10.4 mph - N/A   Partly Cloudy
1:53 AM 59.0 °F 41.0 °F 51% 29.96 in 10.0 mi North 9.2 mph - N/A   Mostly Cloudy
2:53 AM 60.1 °F 39.9 °F 47% 29.97 in 10.0 mi WNW 8.1 mph - N/A   Overcast
3:53 AM 60.1 °F 41.0 °F 49% 29.98 in 10.0 mi NNW 9.2 mph - N/A   Overcast
4:53 AM 60.1 °F 39.9 °F 47% 29.97 in 10.0 mi Calm Calm - N/A   Overcast
5:53 AM 60.1 °F 39.9 °F 47% 30.00 in 10.0 mi Calm Calm - N/A   Overcast
6:53 AM 61.0 °F 42.1 °F 50% 30.02 in 10.0 mi North 4.6 mph - N/A   Overcast
7:53 AM 62.1 °F 42.1 °F 48% 30.04 in 10.0 mi NNW 8.1 mph - N/A   Mostly Cloudy
8:53 AM 64.0 °F 41.0 °F 43% 30.05 in 10.0 mi NNE 3.5 mph - N/A   Mostly Cloudy
9:53 AM 66.0 °F 37.9 °F 36% 30.06 in 10.0 mi East 6.9 mph - N/A   Overcast
10:53 AM 66.9 °F 37.0 °F 33% 30.07 in 10.0 mi ENE 3.5 mph - N/A   Mostly Cloudy
11:53 AM 70.0 °F 37.0 °F 30% 30.06 in 10.0 mi ESE 6.9 mph - N/A   Scattered Clouds
12:53 PM 72.0 °F 37.0 °F 28% 30.04 in 10.0 mi Calm Calm - N/A   Clear
1:53 PM 72.0 °F 37.0 °F 28% 30.03 in 10.0 mi Variable 5.8 mph - N/A   Partly Cloudy
2:53 PM 73.9 °F 37.0 °F 26% 29.99 in 10.0 mi West 8.1 mph - N/A   Clear
3:53 PM 72.0 °F 37.0 °F 28% 29.98 in 10.0 mi Calm Calm - N/A   Clear
4:53 PM 75.0 °F 39.9 °F 28% 29.96 in 10.0 mi NNW 21.9 mph 26.5 mph N/A   Clear
5:53 PM 71.1 °F 39.9 °F 32% 29.97 in 10.0 mi NNW 13.8 mph - N/A   Clear
6:53 PM 70.0 °F 37.9 °F 31% 29.96 in 10.0 mi North 10.4 mph - N/A   Clear
7:53 PM 69.1 °F 39.0 °F 33% 29.99 in 10.0 mi West 5.8 mph - N/A   Partly Cloudy
8:53 PM 69.1 °F 37.9 °F 32% 30.00 in 10.0 mi West 4.6 mph - N/A   Clear
9:53 PM 68.0 °F 37.9 °F 33% 30.01 in 10.0 mi North 5.8 mph - N/A   Clear
10:53 PM 66.0 °F 37.9 °F 36% 30.01 in 10.0 mi NNW 5.8 mph - N/A   Clear
11:53 PM 63.0 °F 37.9 °F 40% 30.00 in 10.0 mi North 8.1 mph - N/A   Clear